Regional Weather Roundup
Issued by NWS State College, PA

Home | Current Version | Previous Version | Graphics & Text | Print | Product List | Glossary On
Versions: 1 2 3 4 5 6 7 8 9 10 11 12 13 14 15 16 17 18 19 20 21 22 23 24 25 26 27 28 29 30 31 32 33 34 35 36 37 38 39 40 41 42 43 44 45 46 47 48 49 50
000
ASUS41 KCTP 021803
RWRCTP

REGIONAL WEATHER ROUNDUP
NATIONAL WEATHER SERVICE STATE COLLEGE PA
200 PM EDT SUN AUG 02 2015

Note: "fair" indicates few or no clouds below 12,000 feet with no
significant weather and/or obstructions to visibility.

* = STATION THAT DOES NOT REPORT PRECIPITATION /E.G. RAIN...SNOW...ETC/
    THUNDER OR FOG.

PAZ002>004-007>009-013>016-020>023-029>032-021900-
WESTERN PENNSYLVANIA

CITY           SKY/WX    TMP DP  RH WIND       PRES   REMARKS
ERIE           SUNNY     83  60  45 VRB5      29.87F
MEADVILLE      SUNNY     82  54  37 SW9       29.93F
FRANKLIN*      SUNNY     81  55  41 W7        29.95F
NEW CASTLE     MOCLDY    85  63  47 CALM      29.93F
BEAVER COUNTY  NOT AVBL
BUTLER*        MOSUNNY   84  61  45 W13       29.96S
PITTSBURGH INT MOSUNNY   85  61  44 W9G16     29.95S
PITTSBURGH     PTSUNNY   81  57  43 SW10G18   29.95S
INDIANA*       PTSUNNY   81  61  50 SW13      29.99S
LATROBE        PTSUNNY   81  63  54 SW17      29.97F
WASHINGTON CO* NOT AVBL
$$

PAZ004>006-010>012-017>019-024>028-033>037-041-042-045-046-049>053-021900-
CENTRAL PENNSYLVANIA

CITY           SKY/WX    TMP DP  RH WIND       PRES   REMARKS
BRADFORD       SUNNY     79  50  36 W8        29.96S
DUBOIS         MOSUNNY   80  59  48 W10       29.95S
CLEARFIELD     MOSUNNY   80  60  50 S6        29.95F
JOHNSTOWN      MOSUNNY   77  58  51 W10G20    30.00S
ALTOONA        MOSUNNY   81  59  47 SW10G18   29.97F
STATE COLLEGE  PTSUNNY   77  63  61 SW9       29.95S
WILLIAMSPORT   PTSUNNY   85  56  37 W8        29.89F
SELINSGROVE    MOSUNNY   85  61  44 VRB6      29.92F
FT INDIANTOWN  MOSUNNY   84  56  37 SW10      29.92F
CAPITAL CITY   SUNNY     87  54  32 SW10      29.92F
HARRISBURG     PTSUNNY   87  58  37 S14       29.92F
YORK           MOSUNNY   83  58  42 W8        29.94F
$$

PAZ038>040-043-044-047-048-054-055-060>062-067>071-021900-
EASTERN PENNSYLVANIA

CITY           SKY/WX    TMP DP  RH WIND       PRES   REMARKS
SCRANTON       MOSUNNY   84  55  36 SW12      29.92F
MOUNT POCONO   PTSUNNY   75  54  47 SW10      29.97F
ALLENTOWN      MOSUNNY   85  55  35 SW8       29.92F
QUAKERTOWN*    PTCLDY    84  54  34 SW7       29.94F
READING        SUNNY     85  57  38 S9        29.92F
LANCASTER      MOSUNNY   84  56  38 W6        29.93F
COATESVILLE    PTCLDY    82  59  44 S8        29.96F
POTTSTOWN      MOSUNNY   84  55  36 SW8       29.95F
BLUE BELL      MOSUNNY   86  55  35 CALM      29.92F
DOYLESTOWN     MOSUNNY   84  53  34 SW8       29.92F
WILLOW GROVE   NOT AVBL
NORTH PHILA    MOSUNNY   89  46  22 VRB5      29.93F
PHILADELPHIA   MOSUNNY   88  51  28 SW9       29.92F
$$


USA.gov is the U.S. government's official web portal to all federal, state and local government web resources and services.